Weather in Saksahan

Ukraine / Dnipropetrovsk Region     48°20′57″N   33°49′59″E
temp.,
°C
wind,
m/s
gust,
m/s
humid.,
%
clouds,
%
prec.,
mm/h
press.,
hPa
HPBL,
m
21 october, thu
thu2100:00+9ssw61484100 0.0 1023434
03:00+9ssw715845 0.0 1023471
06:00+9ssw71790100 0.0 1021544
09:00+11ssw91782100 0.0 1020706
12:00+16sw10145392 0.0 10191039
15:00+18ssw10144491 0.0 10161161
18:00+14ssw9155097 0.0 1015801
21:00+11ssw81767100 0.0 1014674
22 october, fri
fri2200:00+11ssw8178281 0.0 1013625
03:00+10ssw7149227 0.0 1013477
06:00+10sw5129655 0.0 1013350
09:00+12sw6108576 0.0 1013323
12:00+18w564482 0.0 1014892
15:00+19w453995 0.0 10141400
18:00+16sw335010 0.0 101430
21:00+14sw3459100 0.0 101557
23 october, sat
sat2300:00+12sw486678 0.0 1015120
03:00+12sw3570100 0.0 101583
06:00+11w3573100 0.0 101595
09:00+12nw3751100 0.0 1016235
12:00+14w3447100 0.0 1017458
15:00+14wnw4104592 0.0 10171349
18:00+11w474793 0.0 1019297
21:00+8nw37555 0.0 1021123
24 october, sun
sun2400:00+6wnw35490 0.0 102263
03:00+4nw35600 0.0 102296
06:00+3wnw36725 0.0 1023116
09:00+5wnw48625 0.0 1024311
12:00+10wnw67475 0.0 10231422
15:00+10wnw8940100 0.0 10222096
18:00+6nw8116050 0.0 1024795
21:00+5nw71169100 0.1 1025907
25 october, mon
mon2500:00+3nnw6116244 0.3 1026718
03:00+2nnw612685 0.3 1027603
06:00+1nnw61177100 0.0 1029595
09:00+2nnw69705 0.0 1031551
12:00+5n67485 0.0 10321112
15:00+7n67383 0.0 10321265
18:00+4n35440 0.0 103469
21:00+2ne34510 0.0 103565